User: anonymous   Login
Location: Hickory_CSC
(35.7330°N, 81.3330°W)
Time: 09:13:30
(UTC-04:00)
Language:

Cosmos 1356 Rocket - Orbit

View from above orbital plane
View from above orbital plane
View from above satellite
View from above satellite

Ground track
Ground track

The orbit data is extracted from the following two-line orbital elements,

1 13154U 82039B   17265.18355391  .00000194  00000-0  14247-4 0  9998
2 13154  81.1822 120.9584 0039900 337.4499  22.4964 14.98370518918266
Epoch (UTC): 22 September 2017 04:24:19
Eccentricity: 0.0039900
inclination: 81.1822°
perigee height: 544 km
apogee height: 599 km
right ascension of ascending node: 120.9584°
argument of perigee: 337.4499°
revolutions per day: 14.98370518
mean anomaly at epoch: 22.4964°
orbit number at epoch: 91826

The dashed part of the orbit path shows where the satellite is in the earth's shadow,  

DLR